SL-8 R/B, 1575

Orbit data source: Space-Track

SL-8 R/B, 1575 is space debris in LEO originally from a launch on Fri, 03 Sep 1965 UTC launched from the Tyuratam Missile And Space Complex (TTMTR). Debris objects in space refer to the collection of defunct objects orbiting the Earth. Examples of debris include non-operational satellites, rocket bodies, and fragments generated from explosions, collisions, or faulty payload assembly.

Loading next visibility...
Identifier
1575, 1965-070F
Orbit
LEO
Last TLE update
5 hours ago
Origin
Manufacturer
Yuzhnoe
Mission
Spacecraft
Bus & Motor
S3, Unknown motor
Mass
1,434 kg wet, 1,434 kg dry
Launch date (UTC)
1965-09-03 (60 years ago)
Launch vehicle
Unknown
Launch site
Tyuratam Missile And Space Complex (TTMTR)
Object type
Payload
Rocket body
Debris
Shape & HBR
Cyl, 6.57 m
Radar Cross Section
14.646 m², Large (>1 m²)

Expand to show TLE details & history

TLE from 5 hours ago
0 SL-8 R/B
1 01575U 65070F   25182.63841630 -.00000098  00000-0 -41925-5 0  9990
2 01575  56.1264 348.5217 0097904 327.9759 102.9792 12.57009027746689
Epoch: 2025-07-01T15:19Z
TLE epoch observation values (Epoch: 2025-07-01T15:19:19.168Z)
Latitude
52.29853°
Longitude
-101.44157°
Altitude
1,459.961 km
Speed
7.13 km/s
True Right ascension
03h 13m 16s
True Declination
52° 08' 49"
Sunlit
Object was in daylight at epoch
Visualization orbit readout
Latitude
-42.30951°
Longitude
160.73906°
Altitude
1,378.825 km
Speed
7.202 km/s
Apparent Right ascension
20h 24m 13s
Apparent Declination
-41° 09' 29"
Sunlit
Object is in full shadow
Visualization observer readout
Local Sidereal Time
08:03:23
Azimuth
250.904° W
Elevation
-85.851°
Doppler factor
1
Orbital elements
Apogee altitude
1,511.622 km
Perigee altitude
1,358.632 km
Semi-major axis
7,813.264 km
Eccentricity
0.00979
Inclination
56.1264°
RAAN
348.5217°
Arg. of periapsis
327.9759°
True anomaly
Unknown
Mean anomaly
102.9792°
Eccentric anomaly
Unknown
Mean motion
3.14264 °/min
Orbital period
114.55 mins
BSTAR
-0.0000041925
Loading maneuver chart data...
Loading SW <> Apogee altitude chart data...
Loading historical data...
Loading historical data...
Loading historical data...
Loading historical data...
Loading historical data...
Loading historical data...
Loading historical data...
Other satellites on launch #70 in the year 1965 (1965-09-03 UTC)

SL-8 R/B Visibility forecast

Observer location: undefined°, undefined°

Span
Click to sort rows by Start time (UTC) header in descending order
Start Az.
Max El. time (UTC)
Max El. Az.
Max El.
End time (UTC)
End Az.
17 mins2025-07-01 21:13:18.545Z313.64° NW2025-07-01 21:21:18.545Z276.475° WNW44.762°2025-07-01 21:30:18.545Z140.317° SSE
11 mins2025-07-01 23:15:18.545Z283.451° WNW2025-07-01 23:20:18.545Z245.368° WSW20.693°2025-07-01 23:26:18.545Z201.555° SSW
13 mins2025-07-02 12:03:18.545Z173.582° S2025-07-02 12:09:18.545Z115.822° SE29.301°2025-07-02 12:16:18.545Z60.389° ENE
15 mins2025-07-02 14:01:18.545Z238.612° WSW2025-07-02 14:08:18.545Z326.696° NNW43.067°2025-07-02 14:16:18.545Z42.416° NE
13 mins2025-07-02 16:03:18.545Z290.633° WNW2025-07-02 16:09:18.545Z343.291° N27.639°2025-07-02 16:16:18.545Z41.417° NE
13 mins2025-07-02 18:06:18.545Z323.096° NNW2025-07-02 18:12:18.545Z17.086° NNE26.746°2025-07-02 18:19:18.545Z70.25° E
16 mins2025-07-02 20:06:18.545Z320.95° NNW2025-07-02 20:13:18.545Z33.189° NE41.32°2025-07-02 20:22:18.545Z117.505° SE
|